User: anonymous   Login
Location: Langangen
(59.1000°N, 9.8000°E)
Time: 02:12:25
(UTC+02:00)
Language:

Iridium 60 - Orbit

View from above orbital plane
View from above orbital plane
View from above satellite
View from above satellite

Ground track
Ground track

The orbit data is extracted from the following two-line orbital elements,

1 25276U 98019E   16241.43377148 -.00000039  00000-0 -20920-4 0  9991
2 25276  86.3930  49.3846 0001998  86.9433 273.1991 14.34214121964102
Epoch (UTC): 28 August 2016 10:24:37
Eccentricity: 0.0001998
inclination: 86.3930°
perigee height: 776 km
apogee height: 779 km
right ascension of ascending node: 49.3846°
argument of perigee: 86.9433°
revolutions per day: 14.34214121
mean anomaly at epoch: 273.1991°
orbit number at epoch: 96410

The dashed part of the orbit path shows where the satellite is in the earth's shadow,  

DLR